When you browse on this site, cookies collect data to enhance your experience and personalize the content and advertising you see.
Visit our Privacy Policy to learn more. By continuing to use the site, you agree to this use of cookies and data.
  • In Czech Republic
  • List of Countries
  • For 7 days
  • Water Temperature
  • Weather Map
  • Weather Widgets
  • user-avatar
    Login

    Hourly Weather Praha

    Today, 5 June, Friday

    Time Temperature Precipitation Wind Pressure Humidity
    00:00 +14°C° 1 mm 3 mps 727 mmHg 92%
    01:00 +14°C° 0 mm 3 mps 727 mmHg 94%
    02:00 +14°C° 0.2 mm 3 mps 727 mmHg 93%
    03:00 +13°C° 0.2 mm 4 mps 727 mmHg 92%
    04:00 +13°C° 0.2 mm 4 mps 727 mmHg 91%
    05:00 +13°C° 0.2 mm 4 mps 727 mmHg 90%
    06:00 +14°C° 0.2 mm 4 mps 728 mmHg 89%
    07:00 +14°C° 0.2 mm 4 mps 729 mmHg 88%
    08:00 +14°C° 0.4 mm 4 mps 729 mmHg 86%
    09:00 +14°C° 0.4 mm 4 mps 729 mmHg 84%
    10:00 +14°C° 0.4 mm 4 mps 729 mmHg 82%
    11:00 +15°C° 0 mm 4 mps 729 mmHg 74%
    12:00 +18°C° 0 mm 4 mps 729 mmHg 65%
    13:00 +19°C° 0 mm 4 mps 730 mmHg 57%
    14:00 +19°C° 0.1 mm 4 mps 730 mmHg 57%
    15:00 +19°C° 0.1 mm 5 mps 729 mmHg 56%
    16:00 +20°C° 0.1 mm 5 mps 729 mmHg 56%
    17:00 +19°C° 0.1 mm 5 mps 730 mmHg 61%
    18:00 +17°C° 0.1 mm 4 mps 730 mmHg 67%
    19:00 +15°C° 0.1 mm 4 mps 730 mmHg 72%
    20:00 +15°C° 0 mm 4 mps 730 mmHg 73%
    21:00 +14°C° 0 mm 5 mps 731 mmHg 75%
    22:00 +13°C° 0 mm 5 mps 731 mmHg 76%
    23:00 +13°C° 0 mm 5 mps 732 mmHg 77%

    Tomorrow, 6 June, Saturday

    Time Temperature Precipitation Wind Pressure Humidity
    00:00 +13°C° 0 mm 5 mps 732 mmHg 78%
    01:00 +12°C° 0 mm 4 mps 733 mmHg 79%
    02:00 +12°C° 0 mm 4 mps 733 mmHg 78%
    03:00 +12°C° 0 mm 4 mps 733 mmHg 77%
    04:00 +11°C° 0 mm 4 mps 734 mmHg 76%
    05:00 +12°C° 0 mm 4 mps 734 mmHg 76%
    06:00 +12°C° 0 mm 4 mps 734 mmHg 75%
    07:00 +13°C° 0 mm 5 mps 735 mmHg 74%
    08:00 +13°C° 0.2 mm 4 mps 735 mmHg 78%
    09:00 +13°C° 0.2 mm 3 mps 735 mmHg 81%
    10:00 +14°C° 0.2 mm 2 mps 735 mmHg 84%
    11:00 +14°C° 0.1 mm 3 mps 735 mmHg 83%
    12:00 +15°C° 0.1 mm 4 mps 735 mmHg 82%
    13:00 +16°C° 0.1 mm 5 mps 735 mmHg 81%
    14:00 +17°C° 0.1 mm 4 mps 735 mmHg 79%
    15:00 +18°C° 0.1 mm 4 mps 735 mmHg 76%
    16:00 +19°C° 0.1 mm 3 mps 735 mmHg 74%
    17:00 +18°C° 0.1 mm 3 mps 735 mmHg 78%
    18:00 +16°C° 0.1 mm 2 mps 735 mmHg 82%
    19:00 +15°C° 0.1 mm 1 mps 735 mmHg 86%
    20:00 +15°C° 0.1 mm 1 mps 735 mmHg 87%
    21:00 +15°C° 0.1 mm 2 mps 735 mmHg 89%
    22:00 +15°C° 0.1 mm 2 mps 736 mmHg 91%
    23:00 +15°C° 0 mm 2 mps 736 mmHg 91%

    Day after tomorrow, 7 June, Sunday

    Time Temperature Precipitation Wind Pressure Humidity
    00:00 +15°C° 0 mm 1 mps 736 mmHg 91%
    01:00 +14°C° 0 mm 1 mps 736 mmHg 91%
    02:00 +14°C° 0.8 mm 1 mps 736 mmHg 93%
    03:00 +14°C° 0.8 mm 1 mps 736 mmHg 94%
    04:00 +14°C° 0.8 mm 1 mps 736 mmHg 96%
    05:00 +14°C° 1.5 mm 1 mps 736 mmHg 96%
    06:00 +14°C° 1.5 mm 1 mps 736 mmHg 96%
    07:00 +13°C° 1.5 mm 0 mps 736 mmHg 95%
    08:00 +15°C° 0.4 mm 1 mps 737 mmHg 94%
    09:00 +15°C° 0.4 mm 1 mps 737 mmHg 93%
    10:00 +15°C° 0.4 mm 2 mps 738 mmHg 92%
    11:00 +16°C° 0.1 mm 2 mps 738 mmHg 87%
    12:00 +17°C° 0.1 mm 2 mps 738 mmHg 83%
    13:00 +17°C° 0.1 mm 2 mps 738 mmHg 78%
    14:00 +18°C° 0 mm 2 mps 738 mmHg 74%
    15:00 +18°C° 0 mm 2 mps 738 mmHg 69%
    16:00 +19°C° 0 mm 2 mps 738 mmHg 65%
    17:00 +18°C° 0 mm 2 mps 738 mmHg 67%
    18:00 +17°C° 0 mm 2 mps 738 mmHg 70%
    19:00 +16°C° 0 mm 2 mps 739 mmHg 72%
    20:00 +15°C° 0 mm 2 mps 739 mmHg 72%
    21:00 +14°C° 0 mm 1 mps 739 mmHg 73%
    22:00 +14°C° 0 mm 1 mps 740 mmHg 73%
    23:00 +13°C° 0 mm 1 mps 740 mmHg 74%

    8 June, Monday

    Time Temperature Precipitation Wind Pressure Humidity
    00:00 +13°C° 0 mm 1 mps 739 mmHg 74%
    01:00 +13°C° 0 mm 1 mps 739 mmHg 74%
    02:00 +13°C° 0.3 mm 1 mps 739 mmHg 78%
    03:00 +12°C° 0.3 mm 1 mps 739 mmHg 82%
    04:00 +12°C° 0.3 mm 2 mps 739 mmHg 87%
    05:00 +12°C° 1.3 mm 2 mps 739 mmHg 89%
    06:00 +12°C° 1.3 mm 2 mps 739 mmHg 92%
    07:00 +12°C° 1.3 mm 2 mps 739 mmHg 95%
    08:00 +11°C° 1.4 mm 3 mps 739 mmHg 95%
    09:00 +11°C° 1.4 mm 4 mps 740 mmHg 95%
    10:00 +11°C° 1.4 mm 4 mps 740 mmHg 95%
    11:00 +12°C° 0.6 mm 4 mps 740 mmHg 94%
    12:00 +12°C° 0.6 mm 4 mps 740 mmHg 94%
    13:00 +12°C° 0.6 mm 4 mps 740 mmHg 94%
    14:00 +12°C° 0.2 mm 4 mps 739 mmHg 94%
    15:00 +12°C° 0.2 mm 4 mps 739 mmHg 94%
    16:00 +12°C° 0.2 mm 3 mps 739 mmHg 94%
    17:00 +12°C° 0.2 mm 3 mps 739 mmHg 95%
    18:00 +13°C° 0.2 mm 2 mps 739 mmHg 96%
    19:00 +13°C° 0.2 mm 2 mps 739 mmHg 96%
    20:00 +13°C° 0.1 mm 2 mps 740 mmHg 97%
    21:00 +13°C° 0.1 mm 2 mps 740 mmHg 97%
    22:00 +13°C° 0.1 mm 2 mps 740 mmHg 97%
    23:00 +13°C° 0.1 mm 2 mps 740 mmHg 97%

    9 June, Tuesday

    Time Temperature Precipitation Wind Pressure Humidity
    00:00 +13°C° 0.1 mm 1 mps 740 mmHg 97%
    01:00 +13°C° 0.1 mm 1 mps 740 mmHg 97%
    02:00 +13°C° 0 mm 1 mps 740 mmHg 97%
    03:00 +13°C° 0 mm 1 mps 740 mmHg 98%
    04:00 +13°C° 0 mm 1 mps 740 mmHg 98%
    05:00 +13°C° 0.1 mm 1 mps 740 mmHg 97%
    06:00 +14°C° 0.1 mm 1 mps 741 mmHg 96%
    07:00 +14°C° 0.1 mm 1 mps 741 mmHg 95%
    08:00 +14°C° 0 mm 1 mps 741 mmHg 94%
    09:00 +15°C° 0 mm 2 mps 741 mmHg 93%
    10:00 +15°C° 0 mm 2 mps 741 mmHg 92%
    11:00 +16°C° 0 mm 2 mps 741 mmHg 90%
    12:00 +16°C° 0 mm 3 mps 742 mmHg 88%
    13:00 +17°C° 0 mm 3 mps 742 mmHg 86%
    14:00 +17°C° 0 mm 3 mps 742 mmHg 85%
    15:00 +17°C° 0 mm 4 mps 742 mmHg 84%
    16:00 +17°C° 0 mm 4 mps 741 mmHg 83%
    17:00 +15°C° 0 mm 4 mps 742 mmHg 84%
    18:00 +15°C° 0 mm 4 mps 742 mmHg 85%
    19:00 +14°C° 0 mm 4 mps 742 mmHg 86%
    20:00 +13°C° 0 mm 3 mps 742 mmHg 88%
    21:00 +12°C° 0 mm 3 mps 743 mmHg 90%
    22:00 +12°C° 0 mm 2 mps 743 mmHg 92%
    23:00 +12°C° 0 mm 2 mps 743 mmHg 92%

    10 June, Wednesday

    Time Temperature Precipitation Wind Pressure Humidity
    00:00 +12°C° 0 mm 2 mps 743 mmHg 93%
    01:00 +12°C° 0 mm 2 mps 743 mmHg 93%
    02:00 +12°C° 0 mm 2 mps 743 mmHg 93%
    03:00 +12°C° 0 mm 2 mps 743 mmHg 93%
    04:00 +12°C° 0 mm 2 mps 743 mmHg 93%
    05:00 +13°C° 0 mm 2 mps 743 mmHg 91%
    06:00 +13°C° 0 mm 2 mps 743 mmHg 90%
    07:00 +14°C° 0 mm 2 mps 744 mmHg 88%
    08:00 +15°C° 0 mm 2 mps 744 mmHg 85%
    09:00 +16°C° 0 mm 2 mps 744 mmHg 83%
    10:00 +17°C° 0 mm 3 mps 744 mmHg 80%
    11:00 +18°C° 0 mm 3 mps 744 mmHg 77%
    12:00 +19°C° 0 mm 3 mps 744 mmHg 75%
    13:00 +20°C° 0 mm 4 mps 743 mmHg 72%
    14:00 +20°C° 0 mm 4 mps 743 mmHg 72%
    15:00 +20°C° 0 mm 4 mps 743 mmHg 73%
    16:00 +20°C° 0 mm 5 mps 743 mmHg 73%
    17:00 +19°C° 0 mm 4 mps 743 mmHg 77%
    18:00 +18°C° 0 mm 4 mps 743 mmHg 81%
    19:00 +17°C° 0 mm 4 mps 743 mmHg 85%
    20:00 +17°C° 0 mm 3 mps 743 mmHg 86%
    21:00 +16°C° 0 mm 3 mps 743 mmHg 88%
    22:00 +16°C° 0 mm 2 mps 744 mmHg 89%
    23:00 +15°C° 0 mm 2 mps 744 mmHg 91%
    Show more